locationName,lineName,date,time,countIn,countOut
��Ƃ�̍L��,��������,2022/6/1,0:00,7,5
��Ƃ�̍L��,��������,2022/6/1,1:00,13,2
��Ƃ�̍L��,��������,2022/6/1,2:00,3,1
��Ƃ�̍L��,��������,2022/6/1,3:00,8,2
��Ƃ�̍L��,��������,2022/6/1,4:00,4,1
��Ƃ�̍L��,��������,2022/6/1,5:00,19,4
��Ƃ�̍L��,��������,2022/6/1,6:00,32,15
��Ƃ�̍L��,��������,2022/6/1,7:00,58,23
��Ƃ�̍L��,��������,2022/6/1,8:00,47,28
��Ƃ�̍L��,��������,2022/6/1,9:00,47,26
��Ƃ�̍L��,��������,2022/6/1,10:00,64,32
��Ƃ�̍L��,��������,2022/6/1,11:00,69,33
��Ƃ�̍L��,��������,2022/6/1,12:00,66,28
��Ƃ�̍L��,��������,2022/6/1,13:00,48,30
��Ƃ�̍L��,��������,2022/6/1,14:00,49,13
��Ƃ�̍L��,��������,2022/6/1,15:00,75,26
��Ƃ�̍L��,��������,2022/6/1,16:00,87,22
��Ƃ�̍L��,��������,2022/6/1,17:00,68,28
��Ƃ�̍L��,��������,2022/6/1,18:00,83,32
��Ƃ�̍L��,��������,2022/6/1,19:00,38,23
��Ƃ�̍L��,��������,2022/6/1,20:00,53,28
��Ƃ�̍L��,��������,2022/6/1,21:00,27,21
��Ƃ�̍L��,��������,2022/6/1,22:00,27,19
��Ƃ�̍L��,��������,2022/6/1,23:00,16,8
��Ƃ�̍L��,��������,2022/6/2,0:00,6,8
��Ƃ�̍L��,��������,2022/6/2,1:00,3,0
��Ƃ�̍L��,��������,2022/6/2,2:00,9,2
��Ƃ�̍L��,��������,2022/6/2,3:00,10,2
��Ƃ�̍L��,��������,2022/6/2,4:00,5,1
��Ƃ�̍L��,��������,2022/6/2,5:00,20,4
��Ƃ�̍L��,��������,2022/6/2,6:00,23,6
��Ƃ�̍L��,��������,2022/6/2,7:00,46,25
��Ƃ�̍L��,��������,2022/6/2,8:00,39,43
��Ƃ�̍L��,��������,2022/6/2,9:00,47,26
��Ƃ�̍L��,��������,2022/6/2,10:00,50,25
��Ƃ�̍L��,��������,2022/6/2,11:00,37,18
��Ƃ�̍L��,��������,2022/6/2,12:00,74,18
��Ƃ�̍L��,��������,2022/6/2,13:00,62,18
��Ƃ�̍L��,��������,2022/6/2,14:00,52,18
��Ƃ�̍L��,��������,2022/6/2,15:00,47,25
��Ƃ�̍L��,��������,2022/6/2,16:00,38,26
��Ƃ�̍L��,��������,2022/6/2,17:00,77,32
��Ƃ�̍L��,��������,2022/6/2,18:00,77,19
��Ƃ�̍L��,��������,2022/6/2,19:00,26,17
��Ƃ�̍L��,��������,2022/6/2,20:00,37,13
��Ƃ�̍L��,��������,2022/6/2,21:00,25,20
��Ƃ�̍L��,��������,2022/6/2,22:00,25,9
��Ƃ�̍L��,��������,2022/6/2,23:00,18,8
��Ƃ�̍L��,��������,2022/6/3,0:00,11,5
��Ƃ�̍L��,��������,2022/6/3,1:00,11,4
��Ƃ�̍L��,��������,2022/6/3,2:00,7,4
��Ƃ�̍L��,��������,2022/6/3,3:00,3,0
��Ƃ�̍L��,��������,2022/6/3,4:00,6,2
��Ƃ�̍L��,��������,2022/6/3,5:00,20,4
��Ƃ�̍L��,��������,2022/6/3,6:00,25,8
��Ƃ�̍L��,��������,2022/6/3,7:00,46,20
��Ƃ�̍L��,��������,2022/6/3,8:00,45,23
��Ƃ�̍L��,��������,2022/6/3,9:00,53,32
��Ƃ�̍L��,��������,2022/6/3,10:00,55,26
��Ƃ�̍L��,��������,2022/6/3,11:00,76,20
��Ƃ�̍L��,��������,2022/6/3,12:00,65,30
��Ƃ�̍L��,��������,2022/6/3,13:00,51,24
��Ƃ�̍L��,��������,2022/6/3,14:00,44,22
��Ƃ�̍L��,��������,2022/6/3,15:00,52,25
��Ƃ�̍L��,��������,2022/6/3,16:00,56,18
��Ƃ�̍L��,��������,2022/6/3,17:00,83,42
��Ƃ�̍L��,��������,2022/6/3,18:00,87,41
��Ƃ�̍L��,��������,2022/6/3,19:00,36,24
��Ƃ�̍L��,��������,2022/6/3,20:00,23,23
��Ƃ�̍L��,��������,2022/6/3,21:00,36,21
��Ƃ�̍L��,��������,2022/6/3,22:00,21,10
��Ƃ�̍L��,��������,2022/6/3,23:00,22,12
��Ƃ�̍L��,��������,2022/6/4,0:00,18,5
��Ƃ�̍L��,��������,2022/6/4,1:00,9,5
��Ƃ�̍L��,��������,2022/6/4,2:00,7,5
��Ƃ�̍L��,��������,2022/6/4,3:00,11,1
��Ƃ�̍L��,��������,2022/6/4,4:00,15,3
��Ƃ�̍L��,��������,2022/6/4,5:00,25,6
��Ƃ�̍L��,��������,2022/6/4,6:00,31,10
��Ƃ�̍L��,��������,2022/6/4,7:00,31,17
��Ƃ�̍L��,��������,2022/6/4,8:00,37,22
��Ƃ�̍L��,��������,2022/6/4,9:00,66,27
��Ƃ�̍L��,��������,2022/6/4,10:00,77,35
��Ƃ�̍L��,��������,2022/6/4,11:00,88,33
��Ƃ�̍L��,��������,2022/6/4,12:00,106,57
��Ƃ�̍L��,��������,2022/6/4,13:00,118,51
��Ƃ�̍L��,��������,2022/6/4,14:00,85,47
��Ƃ�̍L��,��������,2022/6/4,15:00,101,33
��Ƃ�̍L��,��������,2022/6/4,16:00,79,39
��Ƃ�̍L��,��������,2022/6/4,17:00,70,38
��Ƃ�̍L��,��������,2022/6/4,18:00,44,24
��Ƃ�̍L��,��������,2022/6/4,19:00,50,31
��Ƃ�̍L��,��������,2022/6/4,20:00,49,33
��Ƃ�̍L��,��������,2022/6/4,21:00,53,14
��Ƃ�̍L��,��������,2022/6/4,22:00,23,11
��Ƃ�̍L��,��������,2022/6/4,23:00,18,5
��Ƃ�̍L��,��������,2022/6/5,0:00,12,15
��Ƃ�̍L��,��������,2022/6/5,1:00,14,2
��Ƃ�̍L��,��������,2022/6/5,2:00,18,2
��Ƃ�̍L��,��������,2022/6/5,3:00,5,0
��Ƃ�̍L��,��������,2022/6/5,4:00,7,1
��Ƃ�̍L��,��������,2022/6/5,5:00,13,4
��Ƃ�̍L��,��������,2022/6/5,6:00,29,12
��Ƃ�̍L��,��������,2022/6/5,7:00,27,14
��Ƃ�̍L��,��������,2022/6/5,8:00,42,19
��Ƃ�̍L��,��������,2022/6/5,9:00,56,26
��Ƃ�̍L��,��������,2022/6/5,10:00,112,68
��Ƃ�̍L��,��������,2022/6/5,11:00,122,67
��Ƃ�̍L��,��������,2022/6/5,12:00,148,121
��Ƃ�̍L��,��������,2022/6/5,13:00,158,80
��Ƃ�̍L��,��������,2022/6/5,14:00,127,60
��Ƃ�̍L��,��������,2022/6/5,15:00,136,89
��Ƃ�̍L��,��������,2022/6/5,16:00,57,39
��Ƃ�̍L��,��������,2022/6/5,17:00,74,42
��Ƃ�̍L��,��������,2022/6/5,18:00,58,30
��Ƃ�̍L��,��������,2022/6/5,19:00,35,18
��Ƃ�̍L��,��������,2022/6/5,20:00,23,8
��Ƃ�̍L��,��������,2022/6/5,21:00,12,8
��Ƃ�̍L��,��������,2022/6/5,22:00,6,2
��Ƃ�̍L��,��������,2022/6/5,23:00,7,5
��Ƃ�̍L��,��������,2022/6/6,0:00,12,3
��Ƃ�̍L��,��������,2022/6/6,1:00,7,1
��Ƃ�̍L��,��������,2022/6/6,2:00,1,2
��Ƃ�̍L��,��������,2022/6/6,3:00,2,0
��Ƃ�̍L��,��������,2022/6/6,4:00,7,2
��Ƃ�̍L��,��������,2022/6/6,5:00,14,3
��Ƃ�̍L��,��������,2022/6/6,6:00,32,16
��Ƃ�̍L��,��������,2022/6/6,7:00,42,23
��Ƃ�̍L��,��������,2022/6/6,8:00,38,37
��Ƃ�̍L��,��������,2022/6/6,9:00,64,24
��Ƃ�̍L��,��������,2022/6/6,10:00,68,42
��Ƃ�̍L��,��������,2022/6/6,11:00,77,52
��Ƃ�̍L��,��������,2022/6/6,12:00,90,39
��Ƃ�̍L��,��������,2022/6/6,13:00,60,35
��Ƃ�̍L��,��������,2022/6/6,14:00,63,25
��Ƃ�̍L��,��������,2022/6/6,15:00,62,31
��Ƃ�̍L��,��������,2022/6/6,16:00,76,27
��Ƃ�̍L��,��������,2022/6/6,17:00,113,33
��Ƃ�̍L��,��������,2022/6/6,18:00,95,30
��Ƃ�̍L��,��������,2022/6/6,19:00,42,16
��Ƃ�̍L��,��������,2022/6/6,20:00,34,15
��Ƃ�̍L��,��������,2022/6/6,21:00,31,18
��Ƃ�̍L��,��������,2022/6/6,22:00,17,12
��Ƃ�̍L��,��������,2022/6/6,23:00,9,2
��Ƃ�̍L��,��������,2022/6/7,0:00,3,4
��Ƃ�̍L��,��������,2022/6/7,1:00,5,3
��Ƃ�̍L��,��������,2022/6/7,2:00,13,7
��Ƃ�̍L��,��������,2022/6/7,3:00,4,0
��Ƃ�̍L��,��������,2022/6/7,4:00,5,1
��Ƃ�̍L��,��������,2022/6/7,5:00,18,9
��Ƃ�̍L��,��������,2022/6/7,6:00,30,12
��Ƃ�̍L��,��������,2022/6/7,7:00,49,27
��Ƃ�̍L��,��������,2022/6/7,8:00,51,40
��Ƃ�̍L��,��������,2022/6/7,9:00,56,39
��Ƃ�̍L��,��������,2022/6/7,10:00,59,32
��Ƃ�̍L��,��������,2022/6/7,11:00,45,33
��Ƃ�̍L��,��������,2022/6/7,12:00,73,38
��Ƃ�̍L��,��������,2022/6/7,13:00,52,34
��Ƃ�̍L��,��������,2022/6/7,14:00,49,18
��Ƃ�̍L��,��������,2022/6/7,15:00,57,29
��Ƃ�̍L��,��������,2022/6/7,16:00,62,24
��Ƃ�̍L��,��������,2022/6/7,17:00,90,24
��Ƃ�̍L��,��������,2022/6/7,18:00,102,28
��Ƃ�̍L��,��������,2022/6/7,19:00,36,30
��Ƃ�̍L��,��������,2022/6/7,20:00,47,14
��Ƃ�̍L��,��������,2022/6/7,21:00,20,22
��Ƃ�̍L��,��������,2022/6/7,22:00,37,20
��Ƃ�̍L��,��������,2022/6/7,23:00,17,12
��Ƃ�̍L��,��������,2022/6/8,0:00,14,8
��Ƃ�̍L��,��������,2022/6/8,1:00,2,2
��Ƃ�̍L��,��������,2022/6/8,2:00,7,1
��Ƃ�̍L��,��������,2022/6/8,3:00,4,1
��Ƃ�̍L��,��������,2022/6/8,4:00,4,0
��Ƃ�̍L��,��������,2022/6/8,5:00,22,2
��Ƃ�̍L��,��������,2022/6/8,6:00,28,16
��Ƃ�̍L��,��������,2022/6/8,7:00,59,26
��Ƃ�̍L��,��������,2022/6/8,8:00,41,41
��Ƃ�̍L��,��������,2022/6/8,9:00,59,23
��Ƃ�̍L��,��������,2022/6/8,10:00,76,25
��Ƃ�̍L��,��������,2022/6/8,11:00,60,40
��Ƃ�̍L��,��������,2022/6/8,12:00,70,28
��Ƃ�̍L��,��������,2022/6/8,13:00,81,28
��Ƃ�̍L��,��������,2022/6/8,14:00,51,23
��Ƃ�̍L��,��������,2022/6/8,15:00,81,31
��Ƃ�̍L��,��������,2022/6/8,16:00,96,23
��Ƃ�̍L��,��������,2022/6/8,17:00,72,32
��Ƃ�̍L��,��������,2022/6/8,18:00,80,34
��Ƃ�̍L��,��������,2022/6/8,19:00,35,15
��Ƃ�̍L��,��������,2022/6/8,20:00,47,16
��Ƃ�̍L��,��������,2022/6/8,21:00,28,22
��Ƃ�̍L��,��������,2022/6/8,22:00,15,12
��Ƃ�̍L��,��������,2022/6/8,23:00,8,4
��Ƃ�̍L��,��������,2022/6/9,0:00,16,4
��Ƃ�̍L��,��������,2022/6/9,1:00,9,3
��Ƃ�̍L��,��������,2022/6/9,2:00,8,2
��Ƃ�̍L��,��������,2022/6/9,3:00,5,2
��Ƃ�̍L��,��������,2022/6/9,4:00,3,1
��Ƃ�̍L��,��������,2022/6/9,5:00,16,9
��Ƃ�̍L��,��������,2022/6/9,6:00,27,13
��Ƃ�̍L��,��������,2022/6/9,7:00,59,23
��Ƃ�̍L��,��������,2022/6/9,8:00,44,27
��Ƃ�̍L��,��������,2022/6/9,9:00,47,30
��Ƃ�̍L��,��������,2022/6/9,10:00,48,30
��Ƃ�̍L��,��������,2022/6/9,11:00,47,23
��Ƃ�̍L��,��������,2022/6/9,12:00,64,29
��Ƃ�̍L��,��������,2022/6/9,13:00,51,25
��Ƃ�̍L��,��������,2022/6/9,14:00,40,20
��Ƃ�̍L��,��������,2022/6/9,15:00,50,17
��Ƃ�̍L��,��������,2022/6/9,16:00,72,22
��Ƃ�̍L��,��������,2022/6/9,17:00,93,31
��Ƃ�̍L��,��������,2022/6/9,18:00,75,23
��Ƃ�̍L��,��������,2022/6/9,19:00,21,25
��Ƃ�̍L��,��������,2022/6/9,20:00,25,11
��Ƃ�̍L��,��������,2022/6/9,21:00,30,13
��Ƃ�̍L��,��������,2022/6/9,22:00,23,9
��Ƃ�̍L��,��������,2022/6/9,23:00,22,11
��Ƃ�̍L��,��������,2022/6/10,0:00,9,5
��Ƃ�̍L��,��������,2022/6/10,1:00,9,0
��Ƃ�̍L��,��������,2022/6/10,2:00,7,1
��Ƃ�̍L��,��������,2022/6/10,3:00,7,0
��Ƃ�̍L��,��������,2022/6/10,4:00,3,4
��Ƃ�̍L��,��������,2022/6/10,5:00,17,7
��Ƃ�̍L��,��������,2022/6/10,6:00,27,14
��Ƃ�̍L��,��������,2022/6/10,7:00,53,32
��Ƃ�̍L��,��������,2022/6/10,8:00,32,27
��Ƃ�̍L��,��������,2022/6/10,9:00,50,15
��Ƃ�̍L��,��������,2022/6/10,10:00,48,22
��Ƃ�̍L��,��������,2022/6/10,11:00,63,38
��Ƃ�̍L��,��������,2022/6/10,12:00,71,45
��Ƃ�̍L��,��������,2022/6/10,13:00,88,31
��Ƃ�̍L��,��������,2022/6/10,14:00,51,25
��Ƃ�̍L��,��������,2022/6/10,15:00,98,49
��Ƃ�̍L��,��������,2022/6/10,16:00,94,30
��Ƃ�̍L��,��������,2022/6/10,17:00,107,28
��Ƃ�̍L��,��������,2022/6/10,18:00,75,33
��Ƃ�̍L��,��������,2022/6/10,19:00,19,13
��Ƃ�̍L��,��������,2022/6/10,20:00,36,22
��Ƃ�̍L��,��������,2022/6/10,21:00,40,24
��Ƃ�̍L��,��������,2022/6/10,22:00,17,23
��Ƃ�̍L��,��������,2022/6/10,23:00,37,14
��Ƃ�̍L��,��������,2022/6/11,0:00,20,5
��Ƃ�̍L��,��������,2022/6/11,1:00,22,8
��Ƃ�̍L��,��������,2022/6/11,2:00,13,3
��Ƃ�̍L��,��������,2022/6/11,3:00,10,0
��Ƃ�̍L��,��������,2022/6/11,4:00,9,3
��Ƃ�̍L��,��������,2022/6/11,5:00,19,2
��Ƃ�̍L��,��������,2022/6/11,6:00,19,6
��Ƃ�̍L��,��������,2022/6/11,7:00,17,14
��Ƃ�̍L��,��������,2022/6/11,8:00,47,18
��Ƃ�̍L��,��������,2022/6/11,9:00,84,24
��Ƃ�̍L��,��������,2022/6/11,10:00,86,29
��Ƃ�̍L��,��������,2022/6/11,11:00,102,63
��Ƃ�̍L��,��������,2022/6/11,12:00,130,65
��Ƃ�̍L��,��������,2022/6/11,13:00,120,65
��Ƃ�̍L��,��������,2022/6/11,14:00,146,80
��Ƃ�̍L��,��������,2022/6/11,15:00,113,67
��Ƃ�̍L��,��������,2022/6/11,16:00,77,46
��Ƃ�̍L��,��������,2022/6/11,17:00,100,67
��Ƃ�̍L��,��������,2022/6/11,18:00,71,38
��Ƃ�̍L��,��������,2022/6/11,19:00,55,37
��Ƃ�̍L��,��������,2022/6/11,20:00,41,30
��Ƃ�̍L��,��������,2022/6/11,21:00,71,37
��Ƃ�̍L��,��������,2022/6/11,22:00,24,13
��Ƃ�̍L��,��������,2022/6/11,23:00,27,11
��Ƃ�̍L��,��������,2022/6/12,0:00,23,10
��Ƃ�̍L��,��������,2022/6/12,1:00,22,8
��Ƃ�̍L��,��������,2022/6/12,2:00,18,1
��Ƃ�̍L��,��������,2022/6/12,3:00,21,4
��Ƃ�̍L��,��������,2022/6/12,4:00,7,0
��Ƃ�̍L��,��������,2022/6/12,5:00,16,7
��Ƃ�̍L��,��������,2022/6/12,6:00,23,7
��Ƃ�̍L��,��������,2022/6/12,7:00,37,6
��Ƃ�̍L��,��������,2022/6/12,8:00,38,16
��Ƃ�̍L��,��������,2022/6/12,9:00,48,24
��Ƃ�̍L��,��������,2022/6/12,10:00,67,41
��Ƃ�̍L��,��������,2022/6/12,11:00,100,49
��Ƃ�̍L��,��������,2022/6/12,12:00,130,55
��Ƃ�̍L��,��������,2022/6/12,13:00,114,43
��Ƃ�̍L��,��������,2022/6/12,14:00,119,67
��Ƃ�̍L��,��������,2022/6/12,15:00,95,52
��Ƃ�̍L��,��������,2022/6/12,16:00,89,55
��Ƃ�̍L��,��������,2022/6/12,17:00,66,24
��Ƃ�̍L��,��������,2022/6/12,18:00,66,47
��Ƃ�̍L��,��������,2022/6/12,19:00,31,19
��Ƃ�̍L��,��������,2022/6/12,20:00,40,13
��Ƃ�̍L��,��������,2022/6/12,21:00,24,11
��Ƃ�̍L��,��������,2022/6/12,22:00,9,7
��Ƃ�̍L��,��������,2022/6/12,23:00,10,2
��Ƃ�̍L��,��������,2022/6/13,0:00,9,1
��Ƃ�̍L��,��������,2022/6/13,1:00,0,0
��Ƃ�̍L��,��������,2022/6/13,2:00,2,1
��Ƃ�̍L��,��������,2022/6/13,3:00,5,2
��Ƃ�̍L��,��������,2022/6/13,4:00,7,2
��Ƃ�̍L��,��������,2022/6/13,5:00,23,7
��Ƃ�̍L��,��������,2022/6/13,6:00,21,11
��Ƃ�̍L��,��������,2022/6/13,7:00,42,28
��Ƃ�̍L��,��������,2022/6/13,8:00,47,36
��Ƃ�̍L��,��������,2022/6/13,9:00,58,29
��Ƃ�̍L��,��������,2022/6/13,10:00,88,32
��Ƃ�̍L��,��������,2022/6/13,11:00,85,40
��Ƃ�̍L��,��������,2022/6/13,12:00,102,46
��Ƃ�̍L��,��������,2022/6/13,13:00,87,33
��Ƃ�̍L��,��������,2022/6/13,14:00,72,36
��Ƃ�̍L��,��������,2022/6/13,15:00,74,32
��Ƃ�̍L��,��������,2022/6/13,16:00,71,34
��Ƃ�̍L��,��������,2022/6/13,17:00,89,37
��Ƃ�̍L��,��������,2022/6/13,18:00,105,28
��Ƃ�̍L��,��������,2022/6/13,19:00,29,18
��Ƃ�̍L��,��������,2022/6/13,20:00,30,15
��Ƃ�̍L��,��������,2022/6/13,21:00,20,12
��Ƃ�̍L��,��������,2022/6/13,22:00,14,10
��Ƃ�̍L��,��������,2022/6/13,23:00,10,1
��Ƃ�̍L��,��������,2022/6/14,0:00,6,6
��Ƃ�̍L��,��������,2022/6/14,1:00,12,3
��Ƃ�̍L��,��������,2022/6/14,2:00,5,1
��Ƃ�̍L��,��������,2022/6/14,3:00,5,2
��Ƃ�̍L��,��������,2022/6/14,4:00,10,2
��Ƃ�̍L��,��������,2022/6/14,5:00,26,3
��Ƃ�̍L��,��������,2022/6/14,6:00,23,6
��Ƃ�̍L��,��������,2022/6/14,7:00,52,27
��Ƃ�̍L��,��������,2022/6/14,8:00,50,39
��Ƃ�̍L��,��������,2022/6/14,9:00,64,35
��Ƃ�̍L��,��������,2022/6/14,10:00,71,29
��Ƃ�̍L��,��������,2022/6/14,11:00,64,42
��Ƃ�̍L��,��������,2022/6/14,12:00,72,24
��Ƃ�̍L��,��������,2022/6/14,13:00,66,29
��Ƃ�̍L��,��������,2022/6/14,14:00,41,22
��Ƃ�̍L��,��������,2022/6/14,15:00,69,31
��Ƃ�̍L��,��������,2022/6/14,16:00,72,24
��Ƃ�̍L��,��������,2022/6/14,17:00,97,51
��Ƃ�̍L��,��������,2022/6/14,18:00,114,47
��Ƃ�̍L��,��������,2022/6/14,19:00,46,22
��Ƃ�̍L��,��������,2022/6/14,20:00,39,24
��Ƃ�̍L��,��������,2022/6/14,21:00,33,29
��Ƃ�̍L��,��������,2022/6/14,22:00,17,11
��Ƃ�̍L��,��������,2022/6/14,23:00,23,7
��Ƃ�̍L��,��������,2022/6/15,0:00,10,1
��Ƃ�̍L��,��������,2022/6/15,1:00,12,1
��Ƃ�̍L��,��������,2022/6/15,2:00,6,0
��Ƃ�̍L��,��������,2022/6/15,3:00,7,0
��Ƃ�̍L��,��������,2022/6/15,4:00,8,1
��Ƃ�̍L��,��������,2022/6/15,5:00,23,6
��Ƃ�̍L��,��������,2022/6/15,6:00,26,7
��Ƃ�̍L��,��������,2022/6/15,7:00,68,23
��Ƃ�̍L��,��������,2022/6/15,8:00,52,42
��Ƃ�̍L��,��������,2022/6/15,9:00,68,29
��Ƃ�̍L��,��������,2022/6/15,10:00,61,29
��Ƃ�̍L��,��������,2022/6/15,11:00,70,39
��Ƃ�̍L��,��������,2022/6/15,12:00,79,38
��Ƃ�̍L��,��������,2022/6/15,13:00,77,28
��Ƃ�̍L��,��������,2022/6/15,14:00,59,26
��Ƃ�̍L��,��������,2022/6/15,15:00,71,35
��Ƃ�̍L��,��������,2022/6/15,16:00,121,30
��Ƃ�̍L��,��������,2022/6/15,17:00,77,52
��Ƃ�̍L��,��������,2022/6/15,18:00,82,42
��Ƃ�̍L��,��������,2022/6/15,19:00,42,27
��Ƃ�̍L��,��������,2022/6/15,20:00,26,23
��Ƃ�̍L��,��������,2022/6/15,21:00,37,27
��Ƃ�̍L��,��������,2022/6/15,22:00,19,10
��Ƃ�̍L��,��������,2022/6/15,23:00,24,8
��Ƃ�̍L��,��������,2022/6/16,0:00,24,6
��Ƃ�̍L��,��������,2022/6/16,1:00,12,2
��Ƃ�̍L��,��������,2022/6/16,2:00,7,2
��Ƃ�̍L��,��������,2022/6/16,3:00,11,1
��Ƃ�̍L��,��������,2022/6/16,4:00,4,3
��Ƃ�̍L��,��������,2022/6/16,5:00,16,5
��Ƃ�̍L��,��������,2022/6/16,6:00,24,8
��Ƃ�̍L��,��������,2022/6/16,7:00,54,20
��Ƃ�̍L��,��������,2022/6/16,8:00,51,31
��Ƃ�̍L��,��������,2022/6/16,9:00,55,25
��Ƃ�̍L��,��������,2022/6/16,10:00,60,31
��Ƃ�̍L��,��������,2022/6/16,11:00,59,30
��Ƃ�̍L��,��������,2022/6/16,12:00,59,23
��Ƃ�̍L��,��������,2022/6/16,13:00,46,24
��Ƃ�̍L��,��������,2022/6/16,14:00,54,21
��Ƃ�̍L��,��������,2022/6/16,15:00,54,29
��Ƃ�̍L��,��������,2022/6/16,16:00,66,14
��Ƃ�̍L��,��������,2022/6/16,17:00,72,25
��Ƃ�̍L��,��������,2022/6/16,18:00,97,28
��Ƃ�̍L��,��������,2022/6/16,19:00,42,28
��Ƃ�̍L��,��������,2022/6/16,20:00,40,28
��Ƃ�̍L��,��������,2022/6/16,21:00,43,28
��Ƃ�̍L��,��������,2022/6/16,22:00,14,1
��Ƃ�̍L��,��������,2022/6/16,23:00,14,6
��Ƃ�̍L��,��������,2022/6/17,0:00,15,5
��Ƃ�̍L��,��������,2022/6/17,1:00,11,5
��Ƃ�̍L��,��������,2022/6/17,2:00,4,6
��Ƃ�̍L��,��������,2022/6/17,3:00,8,1
��Ƃ�̍L��,��������,2022/6/17,4:00,10,9
��Ƃ�̍L��,��������,2022/6/17,5:00,17,6
��Ƃ�̍L��,��������,2022/6/17,6:00,31,7
��Ƃ�̍L��,��������,2022/6/17,7:00,51,25
��Ƃ�̍L��,��������,2022/6/17,8:00,43,43
��Ƃ�̍L��,��������,2022/6/17,9:00,41,33
��Ƃ�̍L��,��������,2022/6/17,10:00,58,28
��Ƃ�̍L��,��������,2022/6/17,11:00,76,32
��Ƃ�̍L��,��������,2022/6/17,12:00,79,35
��Ƃ�̍L��,��������,2022/6/17,13:00,60,23
��Ƃ�̍L��,��������,2022/6/17,14:00,62,26
��Ƃ�̍L��,��������,2022/6/17,15:00,81,19
��Ƃ�̍L��,��������,2022/6/17,16:00,78,36
��Ƃ�̍L��,��������,2022/6/17,17:00,96,28
��Ƃ�̍L��,��������,2022/6/17,18:00,96,22
��Ƃ�̍L��,��������,2022/6/17,19:00,43,21
��Ƃ�̍L��,��������,2022/6/17,20:00,29,16
��Ƃ�̍L��,��������,2022/6/17,21:00,40,27
��Ƃ�̍L��,��������,2022/6/17,22:00,27,17
��Ƃ�̍L��,��������,2022/6/17,23:00,29,10
��Ƃ�̍L��,��������,2022/6/18,0:00,19,15
��Ƃ�̍L��,��������,2022/6/18,1:00,13,4
��Ƃ�̍L��,��������,2022/6/18,2:00,9,1
��Ƃ�̍L��,��������,2022/6/18,3:00,8,2
��Ƃ�̍L��,��������,2022/6/18,4:00,3,1
��Ƃ�̍L��,��������,2022/6/18,5:00,20,4
��Ƃ�̍L��,��������,2022/6/18,6:00,20,5
��Ƃ�̍L��,��������,2022/6/18,7:00,40,11
��Ƃ�̍L��,��������,2022/6/18,8:00,36,17
��Ƃ�̍L��,��������,2022/6/18,9:00,54,23
��Ƃ�̍L��,��������,2022/6/18,10:00,83,34
��Ƃ�̍L��,��������,2022/6/18,11:00,71,32
��Ƃ�̍L��,��������,2022/6/18,12:00,110,55
��Ƃ�̍L��,��������,2022/6/18,13:00,107,51
��Ƃ�̍L��,��������,2022/6/18,14:00,112,61
��Ƃ�̍L��,��������,2022/6/18,15:00,107,49
��Ƃ�̍L��,��������,2022/6/18,16:00,72,42
��Ƃ�̍L��,��������,2022/6/18,17:00,68,27
��Ƃ�̍L��,��������,2022/6/18,18:00,61,36
��Ƃ�̍L��,��������,2022/6/18,19:00,38,32
��Ƃ�̍L��,��������,2022/6/18,20:00,30,24
��Ƃ�̍L��,��������,2022/6/18,21:00,37,14
��Ƃ�̍L��,��������,2022/6/18,22:00,32,20
��Ƃ�̍L��,��������,2022/6/18,23:00,23,8
��Ƃ�̍L��,��������,2022/6/19,0:00,28,7
��Ƃ�̍L��,��������,2022/6/19,1:00,12,6
��Ƃ�̍L��,��������,2022/6/19,2:00,49,21
��Ƃ�̍L��,��������,2022/6/19,3:00,12,6
��Ƃ�̍L��,��������,2022/6/19,4:00,11,3
��Ƃ�̍L��,��������,2022/6/19,5:00,13,5
��Ƃ�̍L��,��������,2022/6/19,6:00,22,15
��Ƃ�̍L��,��������,2022/6/19,7:00,18,7
��Ƃ�̍L��,��������,2022/6/19,8:00,43,9
��Ƃ�̍L��,��������,2022/6/19,9:00,43,21
��Ƃ�̍L��,��������,2022/6/19,10:00,82,29
��Ƃ�̍L��,��������,2022/6/19,11:00,79,35
��Ƃ�̍L��,��������,2022/6/19,12:00,106,50
��Ƃ�̍L��,��������,2022/6/19,13:00,132,43
��Ƃ�̍L��,��������,2022/6/19,14:00,131,47
��Ƃ�̍L��,��������,2022/6/19,15:00,78,38
��Ƃ�̍L��,��������,2022/6/19,16:00,81,39
��Ƃ�̍L��,��������,2022/6/19,17:00,48,27
��Ƃ�̍L��,��������,2022/6/19,18:00,48,15
��Ƃ�̍L��,��������,2022/6/19,19:00,43,16
��Ƃ�̍L��,��������,2022/6/19,20:00,29,21
��Ƃ�̍L��,��������,2022/6/19,21:00,31,11
��Ƃ�̍L��,��������,2022/6/19,22:00,26,8
��Ƃ�̍L��,��������,2022/6/19,23:00,5,5
��Ƃ�̍L��,��������,2022/6/20,0:00,7,3
��Ƃ�̍L��,��������,2022/6/20,1:00,6,2
��Ƃ�̍L��,��������,2022/6/20,2:00,5,2
��Ƃ�̍L��,��������,2022/6/20,3:00,1,1
��Ƃ�̍L��,��������,2022/6/20,4:00,5,2
��Ƃ�̍L��,��������,2022/6/20,5:00,13,4
��Ƃ�̍L��,��������,2022/6/20,6:00,17,7
��Ƃ�̍L��,��������,2022/6/20,7:00,31,15
��Ƃ�̍L��,��������,2022/6/20,8:00,50,36
��Ƃ�̍L��,��������,2022/6/20,9:00,53,22
��Ƃ�̍L��,��������,2022/6/20,10:00,65,24
��Ƃ�̍L��,��������,2022/6/20,11:00,55,31
��Ƃ�̍L��,��������,2022/6/20,12:00,73,19
��Ƃ�̍L��,��������,2022/6/20,13:00,73,21
��Ƃ�̍L��,��������,2022/6/20,14:00,47,32
��Ƃ�̍L��,��������,2022/6/20,15:00,83,20
��Ƃ�̍L��,��������,2022/6/20,16:00,54,34
��Ƃ�̍L��,��������,2022/6/20,17:00,59,21
��Ƃ�̍L��,��������,2022/6/20,18:00,83,24
��Ƃ�̍L��,��������,2022/6/20,19:00,49,17
��Ƃ�̍L��,��������,2022/6/20,20:00,32,17
��Ƃ�̍L��,��������,2022/6/20,21:00,24,10
��Ƃ�̍L��,��������,2022/6/20,22:00,18,4
��Ƃ�̍L��,��������,2022/6/20,23:00,10,2
��Ƃ�̍L��,��������,2022/6/21,0:00,3,4
��Ƃ�̍L��,��������,2022/6/21,1:00,7,2
��Ƃ�̍L��,��������,2022/6/21,2:00,7,2
��Ƃ�̍L��,��������,2022/6/21,3:00,4,3
��Ƃ�̍L��,��������,2022/6/21,4:00,3,1
��Ƃ�̍L��,��������,2022/6/21,5:00,20,1
��Ƃ�̍L��,��������,2022/6/21,6:00,21,10
��Ƃ�̍L��,��������,2022/6/21,7:00,48,18
��Ƃ�̍L��,��������,2022/6/21,8:00,34,33
��Ƃ�̍L��,��������,2022/6/21,9:00,51,30
��Ƃ�̍L��,��������,2022/6/21,10:00,68,41
��Ƃ�̍L��,��������,2022/6/21,11:00,57,35
��Ƃ�̍L��,��������,2022/6/21,12:00,80,39
��Ƃ�̍L��,��������,2022/6/21,13:00,60,27
��Ƃ�̍L��,��������,2022/6/21,14:00,44,26
��Ƃ�̍L��,��������,2022/6/21,15:00,60,31
��Ƃ�̍L��,��������,2022/6/21,16:00,106,35
��Ƃ�̍L��,��������,2022/6/21,17:00,114,35
��Ƃ�̍L��,��������,2022/6/21,18:00,69,30
��Ƃ�̍L��,��������,2022/6/21,19:00,37,17
��Ƃ�̍L��,��������,2022/6/21,20:00,30,22
��Ƃ�̍L��,��������,2022/6/21,21:00,21,21
��Ƃ�̍L��,��������,2022/6/21,22:00,22,10
��Ƃ�̍L��,��������,2022/6/21,23:00,9,5
��Ƃ�̍L��,��������,2022/6/22,0:00,14,5
��Ƃ�̍L��,��������,2022/6/22,1:00,7,3
��Ƃ�̍L��,��������,2022/6/22,2:00,8,2
��Ƃ�̍L��,��������,2022/6/22,3:00,4,1
��Ƃ�̍L��,��������,2022/6/22,4:00,11,0
��Ƃ�̍L��,��������,2022/6/22,5:00,16,3
��Ƃ�̍L��,��������,2022/6/22,6:00,17,4
��Ƃ�̍L��,��������,2022/6/22,7:00,38,16
��Ƃ�̍L��,��������,2022/6/22,8:00,63,31
��Ƃ�̍L��,��������,2022/6/22,9:00,46,30
��Ƃ�̍L��,��������,2022/6/22,10:00,63,31
��Ƃ�̍L��,��������,2022/6/22,11:00,49,34
��Ƃ�̍L��,��������,2022/6/22,12:00,57,26
��Ƃ�̍L��,��������,2022/6/22,13:00,49,29
��Ƃ�̍L��,��������,2022/6/22,14:00,40,22
��Ƃ�̍L��,��������,2022/6/22,15:00,56,16
��Ƃ�̍L��,��������,2022/6/22,16:00,63,33
��Ƃ�̍L��,��������,2022/6/22,17:00,69,22
��Ƃ�̍L��,��������,2022/6/22,18:00,59,28
��Ƃ�̍L��,��������,2022/6/22,19:00,42,23
��Ƃ�̍L��,��������,2022/6/22,20:00,31,16
��Ƃ�̍L��,��������,2022/6/22,21:00,15,16
��Ƃ�̍L��,��������,2022/6/22,22:00,28,9
��Ƃ�̍L��,��������,2022/6/22,23:00,18,5
��Ƃ�̍L��,��������,2022/6/23,0:00,11,1
��Ƃ�̍L��,��������,2022/6/23,1:00,10,0
��Ƃ�̍L��,��������,2022/6/23,2:00,4,4
��Ƃ�̍L��,��������,2022/6/23,3:00,4,2
��Ƃ�̍L��,��������,2022/6/23,4:00,6,1
��Ƃ�̍L��,��������,2022/6/23,5:00,15,6
��Ƃ�̍L��,��������,2022/6/23,6:00,19,4
��Ƃ�̍L��,��������,2022/6/23,7:00,42,15
��Ƃ�̍L��,��������,2022/6/23,8:00,30,47
��Ƃ�̍L��,��������,2022/6/23,9:00,27,12
��Ƃ�̍L��,��������,2022/6/23,10:00,43,16
��Ƃ�̍L��,��������,2022/6/23,11:00,34,20
��Ƃ�̍L��,��������,2022/6/23,12:00,38,12
��Ƃ�̍L��,��������,2022/6/23,13:00,24,19
��Ƃ�̍L��,��������,2022/6/23,14:00,27,14
��Ƃ�̍L��,��������,2022/6/23,15:00,58,17
��Ƃ�̍L��,��������,2022/6/23,16:00,83,13
��Ƃ�̍L��,��������,2022/6/23,17:00,81,25
��Ƃ�̍L��,��������,2022/6/23,18:00,54,24
��Ƃ�̍L��,��������,2022/6/23,19:00,26,14
��Ƃ�̍L��,��������,2022/6/23,20:00,32,19
��Ƃ�̍L��,��������,2022/6/23,21:00,38,18
��Ƃ�̍L��,��������,2022/6/23,22:00,24,7
��Ƃ�̍L��,��������,2022/6/23,23:00,25,1
��Ƃ�̍L��,��������,2022/6/24,0:00,5,6
��Ƃ�̍L��,��������,2022/6/24,1:00,6,3
��Ƃ�̍L��,��������,2022/6/24,2:00,11,2
��Ƃ�̍L��,��������,2022/6/24,3:00,2,0
��Ƃ�̍L��,��������,2022/6/24,4:00,7,1
��Ƃ�̍L��,��������,2022/6/24,5:00,15,4
��Ƃ�̍L��,��������,2022/6/24,6:00,17,8
��Ƃ�̍L��,��������,2022/6/24,7:00,46,17
��Ƃ�̍L��,��������,2022/6/24,8:00,39,39
��Ƃ�̍L��,��������,2022/6/24,9:00,39,29
��Ƃ�̍L��,��������,2022/6/24,10:00,56,32
��Ƃ�̍L��,��������,2022/6/24,11:00,61,35
��Ƃ�̍L��,��������,2022/6/24,12:00,42,24
��Ƃ�̍L��,��������,2022/6/24,13:00,48,25
��Ƃ�̍L��,��������,2022/6/24,14:00,49,18
��Ƃ�̍L��,��������,2022/6/24,15:00,79,28
��Ƃ�̍L��,��������,2022/6/24,16:00,84,34
��Ƃ�̍L��,��������,2022/6/24,17:00,78,23
��Ƃ�̍L��,��������,2022/6/24,18:00,80,23
��Ƃ�̍L��,��������,2022/6/24,19:00,47,12
��Ƃ�̍L��,��������,2022/6/24,20:00,17,13
��Ƃ�̍L��,��������,2022/6/24,21:00,32,12
��Ƃ�̍L��,��������,2022/6/24,22:00,26,17
��Ƃ�̍L��,��������,2022/6/24,23:00,14,4
��Ƃ�̍L��,��������,2022/6/25,0:00,20,6
��Ƃ�̍L��,��������,2022/6/25,1:00,11,7
��Ƃ�̍L��,��������,2022/6/25,2:00,14,3
��Ƃ�̍L��,��������,2022/6/25,3:00,13,3
��Ƃ�̍L��,��������,2022/6/25,4:00,2,2
��Ƃ�̍L��,��������,2022/6/25,5:00,13,3
��Ƃ�̍L��,��������,2022/6/25,6:00,18,6
��Ƃ�̍L��,��������,2022/6/25,7:00,21,6
��Ƃ�̍L��,��������,2022/6/25,8:00,35,13
��Ƃ�̍L��,��������,2022/6/25,9:00,66,22
��Ƃ�̍L��,��������,2022/6/25,10:00,81,34
��Ƃ�̍L��,��������,2022/6/25,11:00,80,51
��Ƃ�̍L��,��������,2022/6/25,12:00,134,46
��Ƃ�̍L��,��������,2022/6/25,13:00,147,59
��Ƃ�̍L��,��������,2022/6/25,14:00,95,50
��Ƃ�̍L��,��������,2022/6/25,15:00,126,55
��Ƃ�̍L��,��������,2022/6/25,16:00,82,71
��Ƃ�̍L��,��������,2022/6/25,17:00,72,39
��Ƃ�̍L��,��������,2022/6/25,18:00,118,70
��Ƃ�̍L��,��������,2022/6/25,19:00,0,0
��Ƃ�̍L��,��������,2022/6/25,20:00,0,0
��Ƃ�̍L��,��������,2022/6/25,21:00,0,0
��Ƃ�̍L��,��������,2022/6/25,22:00,0,0
��Ƃ�̍L��,��������,2022/6/25,23:00,0,0
��Ƃ�̍L��,��������,2022/6/26,0:00,0,0